GSAT0207 (PRN E07)

Last updated on Jan. 22, 2021, 6:27 a.m. UTC

1 41859U 16069A   21021.06508586  .00000029  00000-0  00000-0 0  9994
2 41859  54.6902 155.8001 0002458 302.6998  57.2380  1.70473577 25925
UTC
Height (km)
Latitude
Longitude
Inclination
Orbital Period
UTC large
Height (km)
Speed (km/s)
/
Latitude / Longitude
Inclination (degrees)
Orbital Period (minutes)
Azimuth
Elevation
Range (km)
Doppler Factor
iOS Compass Heading
iOS Angle

Next 30 passes for location: Hong Kong

Rise time Rise Azimuth (degrees) Set time Set Azimuth (degrees) Duration Max altitude (degrees)

No matching passes for this satellites